Regional Weather Roundup
Issued by NWS Albany, NY

Home | Current Version | Previous Version | Graphics & Text | Print | Product List | Glossary On
Versions: 1 2 3 4 5 6 7 8 9 10 11 12 13 14 15 16 17 18 19 20 21 22 23 24 25 26 27
000
ASUS41 KALY 232010
RWRALY

NEW YORK STATE HOURLY WEATHER ROUNDUP
NATIONAL WEATHER SERVICE ALBANY NY
400 PM EDT SAT JUL 23 2016

NOTE: "FAIR" INDICATES FEW OR NO CLOUDS BELOW 12,000 FEET WITH NO
SIGNIFICANT WEATHER AND/OR NO OBSTRUCTIONS TO VISIBILITY.

NYZ032-033-038>043-046>054-057>066-NYZ062>081-082-084-232100-
EAST


CITY           SKY/WX    TMP DP  RH WIND       PRES   REMARKS
ALBANY         MOSUNNY   90  59  35 W14       29.80R
GLENS FALLS    MOSUNNY   85  62  46 SW10      29.76S THUNDER
POUGHKEEPSIE   MOSUNNY   95  58  28 W8        29.78F HX  94
NEWBURGH       MOSUNNY   93  59  31 NW10G20   29.83F HX  92
MONTGOMERY     MOSUNNY   95  57  27 NW10G18   29.81F HX  94
WHITE PLAINS   MOSUNNY   94  53  25 W13       29.82F HX  91
ISLIP          PTSUNNY   95  57  27 W14       29.81S HX  94
NEW YORK CITY  MOSUNNY   95  56  26 NW14G24   29.81S HX  93
CENTRAL PARK   PTSUNNY   96  54  24 VRB3G17   29.85S HX  94
$$

NYZ005>009-017-018-044>046-055-056-232100-
CENTRAL


CITY           SKY/WX    TMP DP  RH WIND       PRES   REMARKS
FULTON         MOSUNNY   88  63  43 NW16      29.89S
SYRACUSE       MOSUNNY   87  58  37 W18G24    29.87S
ROME           MOSUNNY   85  62  46 W17G29    29.85S
ELMIRA         MOSUNNY   93  51  23 W13G25    29.89S HX  90
BINGHAMTON     MOSUNNY   86  52  30 N20G26    29.92R
MONTICELLO     SUNNY     88  54  31 NW16G22   29.89F
$$

NYZ026>034-041>043-087-232100-
NORTH


CITY           SKY/WX    TMP DP  RH WIND       PRES   REMARKS
WATERTOWN      MOSUNNY   80  62  54 SW14G22   29.84F
FORT DRUM      NOT AVBL
MASSENA        CLOUDY    73  63  70 E7        29.88R
SARANAC LAKE   PTSUNNY   73  60  63 MISG      29.89R THUNDER
PLATTSBURGH    LGT RAIN  65  61  87 NW7       29.86R
$$

NYZ001>004-010>016-019>021-085-232100-
WEST


CITY           SKY/WX    TMP DP  RH WIND       PRES   REMARKS
NIAGARA FALLS  MOSUNNY   92  52  25 NW10G22   29.92F
BUFFALO        MOSUNNY   88  59  37 SW16      29.93S
DUNKIRK        SUNNY     87  59  38 W14       29.96F
JAMESTOWN      MOSUNNY   84  55  37 W12       30.02S
WELLSVILLE     MOSUNNY   88  52  29 NW13G23   30.01F
ROCHESTER      MOSUNNY   91  55  29 NW18G24   29.91S
PENN YAN       MOSUNNY   89  55  31 NW17G25   29.92S
$$

             KEY
       WCI = WIND CHILL INDEX
       VSB = VISIBILITY
       HX  = HEAT INDEX
$$




USA.gov is the U.S. government's official web portal to all federal, state and local government web resources and services.